Theta_e
321 323 322 322 322 320 320 319 317 316 317 318 318 317 315 314 311 310 308 307 306 306
314 315 315 314 315 315 316 314 316 319 317 316 315 315 315 314 311 309 308 307 307 306
308 310 311 313 312 312 312 311 311 311 312 312 313 313 312 310 310 309 308 307 306 306
304 305 305 305 305 305 306 305 306 306 306 307 308 308 309 308 308 307 307 307 305 304
299 300 300 299 300 301 301 302 302 302 302 303 304 305 305 304 304 303 302 303 303 302
296 297 296 296 296 296 297 297 298 298 298 298 299 299 301 301 300 301 301 302 301 301
294 294 294 294 294 294 294 294 294 295 294 294 295 295 294 293 295 296 298 299 299 300
292 292 292 292 292 291 291 291 292 291 292 292 292 291 293 292 292 293 293 294 294 295
291 290 290 290 289 290 290 290 290 290 289 290 289 290 291 291 291 290 290 290 291 292
288 288 288 287 287 287 288 288 288 288 288 288 289 289 290 290 290 290 290 290 289 289
286 286 286 286 286 286 287 286 286 287 287 287 287 288 289 289 290 290 289 289 289 289
285 283 284 284 285 285 285 285 286 285 285 285 286 287 288 288 288 287 287 287 288 288
283 282 282 283 283 284 284 284 284 284 285 284 284 286 287 287 288 286 286 287 287 287
281 281 282 282 282 282 282 282 282 283 285 285 285 286 286 287 286 285 284 284 285 286
Wind_Speed
2 1 1 1 2 0 1 2 2 4 4 4 5 6 7 7 7 8 9 12 10 8
5 4 3 3 2 1 1 1 3 3 3 4 4 4 5 6 7 8 9 10 11 10
8 7 6 5 5 4 3 3 3 4 5 5 6 6 5 4 4 6 6 6 9 9
8 8 7 7 6 5 4 4 4 3 3 5 5 6 7 9 8 8 8 8 9 11
8 8 8 8 7 6 5 4 5 5 5 5 6 7 8 9 9 8 9 10 10 11
9 9 8 7 7 6 6 5 5 5 5 7 7 8 8 8 10 11 11 10 10 12
8 7 7 7 7 7 6 6 6 6 6 6 7 6 7 7 9 10 10 10 11 11
6 6 6 6 6 5 5 5 5 5 6 6 6 5 8 8 9 9 9 9 10 10
7 6 6 6 6 6 6 6 6 6 7 7 3 8 11 10 7 8 9 10 9 9
7 6 7 7 7 7 7 7 7 7 7 9 9 13 14 12 8 9 9 10 11 11
6 6 6 6 6 6 5 7 7 7 7 8 8 13 16 15 10 9 11 11 12 12
6 7 8 7 8 7 7 7 6 6 8 7 8 13 14 12 8 10 11 10 10 12
6 6 7 8 8 6 7 8 8 8 7 8 9 11 15 13 8 11 10 10 10 12
6 7 7 8 7 8 9 9 9 10 7 8 7 8 14 15 8 9 10 10 10 9
Wind_Direction
87 240 242 262 229 26 175 180 161 202 216 220 215 212 207 219 216 215 223 228 225 229
70 73 84 77 63 29 10 353 296 274 263 242 242 231 227 229 224 216 221 225 229 229
85 80 79 77 66 37 20 8 348 331 307 288 275 271 264 256 248 237 236 231 231 233
74 74 76 72 62 39 16 7 348 333 309 291 283 273 261 265 268 256 258 247 241 244
71 66 60 54 45 28 17 10 359 334 313 298 289 282 269 264 260 254 255 257 257 256
59 61 59 52 42 28 18 17 5 340 324 315 306 299 290 282 279 273 270 265 261 264
51 45 45 43 33 23 13 14 3 352 330 316 310 300 296 284 280 275 270 269 264 262
55 46 41 40 32 21 11 6 354 343 340 327 320 322 312 296 289 281 278 270 266 264
37 32 26 21 15 12 6 2 357 354 341 329 302 305 310 304 287 271 264 270 265 257
21 15 12 3 1 359 349 340 338 336 334 326 322 321 320 312 293 287 276 275 279 279
12 7 357 351 350 342 331 330 322 315 314 309 305 311 314 313 300 287 283 279 278 277
1 352 345 340 337 329 319 314 302 295 297 292 297 309 310 314 301 291 290 286 278 280
345 342 331 323 317 308 296 290 296 291 281 276 285 297 308 316 305 297 296 289 282 266
333 324 312 310 306 304 302 298 298 293 290 287 275 290 307 313 305 299 300 297 298 294